Date String (YYYY-MM-DD hh:mm:ss) UTC,Instrument flags,absolute air pressure of the measurement (hPa),sample flow rate (lpm),inlet stack bypass flow (lpm),air temperature of the measurement (°C),ambient temperature measured by the external sensor (°C),aerosol sample conditioner tube jacket temperature (°C),OPC LED temperature (°C),internal box temperature (°C),relative humidity of the measurement (%),span deviation,mass concentration of particles derived from Lorenz-Mie calculation of OPC scattering (μg/m³),mass concentration of particles derived from Lorenz-Mie calculation of OPC scattering (μg/m³),mass concentration of particles derived from Lorenz-Mie calculation of OPC scattering (μg/m³)
DateTimeUTC,F1_M11,P_M11,Q1_M11,Q2_M11,T1_M11,T2_M11,T3_M11,T4_M11,T5_M11,U1_M11,ZSPAN_M11,X0_M11,X2_M11,X1_M11
2023-11-11 06:00:00,SystemResetWarning,0830.9,5.01,000.00,023.7,022.7,000.0,032.1,025.2,8.5,0000.0,0008.29,0003.54,0003.01
2023-11-11 06:01:00,SystemResetWarning,0830.9,5.00,000.00,023.7,022.7,000.0,032.1,025.2,8.5,0000.0,0008.42,0003.55,0003.01
2023-11-11 06:02:00,SystemResetWarning,0831.0,4.98,000.00,023.7,022.7,000.0,032.1,025.2,8.5,0000.0,0008.35,0003.51,0002.99
2023-11-11 06:03:00,SystemResetWarning,0830.9,5.02,000.00,023.7,022.7,000.0,032.1,025.2,8.5,0000.0,0008.37,0003.48,0002.98
2023-11-11 06:04:00,SystemResetWarning,0831.0,5.00,000.00,023.7,022.7,000.0,032.1,025.2,8.5,0000.0,0008.63,0003.45,0002.96
2023-11-11 06:05:00,SystemResetWarning,0830.9,4.99,000.00,023.7,022.7,000.0,032.1,025.2,8.5,0000.0,0008.84,0003.44,0002.95
2023-11-11 06:06:00,SystemResetWarning,0830.9,5.01,000.00,023.7,022.7,000.0,032.1,025.2,8.4,0000.0,0009.01,0003.45,0002.95
2023-11-11 06:07:00,SystemResetWarning,0830.9,5.01,000.00,023.7,022.7,000.0,032.1,025.1,8.3,0000.0,0009.03,0003.44,0002.96
2023-11-11 06:08:00,SystemResetWarning,0830.9,5.01,000.00,023.7,022.7,000.0,032.1,025.1,8.3,0000.0,0008.18,0003.41,0002.95
2023-11-11 06:09:00,SystemResetWarning,0830.9,5.00,000.00,023.7,022.7,000.0,032.1,025.1,8.3,0000.0,0007.99,0003.40,0002.94
2023-11-11 06:10:00,SystemResetWarning,0831.0,5.00,000.00,023.7,022.6,000.0,032.1,025.1,8.3,0000.0,0007.92,0003.39,0002.92
2023-11-11 06:11:00,SystemResetWarning,0830.9,4.99,000.00,023.7,022.6,000.0,032.1,025.1,8.3,0000.0,0007.44,0003.38,0002.92
2023-11-11 06:12:00,SystemResetWarning,0831.0,4.99,000.00,023.7,022.6,000.0,032.1,025.0,8.4,0000.0,0006.97,0003.34,0002.90
2023-11-11 06:13:00,SystemResetWarning,0830.9,4.99,000.00,023.7,022.6,000.0,032.1,025.0,8.4,0000.0,0006.83,0003.31,0002.89
2023-11-11 06:14:00,SystemResetWarning,0830.9,5.00,000.00,023.7,022.5,000.0,032.1,025.0,8.1,0000.0,0007.28,0003.32,0002.88
2023-11-11 06:15:00,SystemResetWarning,0830.9,5.01,000.00,023.7,022.5,000.0,032.1,025.0,8.0,0000.0,0006.78,0003.32,0002.87
2023-11-11 06:16:00,SystemResetWarning,0830.9,5.00,000.00,023.6,022.5,000.0,032.1,024.9,8.2,0000.0,0006.42,0003.31,0002.88
2023-11-11 06:17:00,SystemResetWarning,0831.0,4.99,000.00,023.6,022.5,000.0,032.1,024.9,8.1,0000.0,0006.09,0003.29,0002.87
2023-11-11 06:18:00,SystemResetWarning,0831.0,4.99,000.00,023.6,022.5,000.0,032.0,024.9,8.1,0000.0,0006.26,0003.31,0002.85
2023-11-11 06:19:00,SystemResetWarning,0831.0,5.00,000.00,023.6,022.5,000.0,032.0,024.9,7.9,0000.0,0005.95,0003.30,0002.81
2023-11-11 06:20:00,SystemResetWarning,0831.0,5.00,000.00,023.6,022.5,000.0,032.0,024.9,7.8,0000.0,0006.04,0003.31,0002.79
2023-11-11 06:21:00,SystemResetWarning,0831.0,5.00,000.00,023.6,022.5,000.0,032.0,025.0,7.6,0000.0,0006.10,0003.31,0002.78
2023-11-11 06:22:00,SystemResetWarning,0831.0,5.00,000.00,023.6,022.5,000.0,032.0,025.0,7.6,0000.0,0006.05,0003.30,0002.75
2023-11-11 06:23:00,SystemResetWarning,0831.0,5.01,000.00,023.6,022.5,000.0,032.0,024.9,7.4,0000.0,0006.06,0003.29,0002.71
2023-11-11 06:24:00,SystemResetWarning,0831.0,5.00,000.00,023.6,022.5,000.0,032.0,024.9,7.4,0000.0,0006.23,0003.32,0002.69
2023-11-11 06:25:00,SystemResetWarning,0831.0,5.00,000.00,023.6,022.5,000.0,032.0,024.9,7.4,0000.0,0006.63,0003.32,0002.66
2023-11-11 06:26:00,SystemResetWarning,0831.1,5.00,000.00,023.6,022.5,000.0,032.0,024.9,7.4,0000.0,0006.87,0003.30,0002.63
2023-11-11 06:27:00,SystemResetWarning,0831.1,5.00,000.00,023.5,022.5,000.0,032.0,024.9,7.4,0000.0,0006.82,0003.29,0002.60
2023-11-11 06:28:00,SystemResetWarning,0831.1,5.00,000.00,023.5,022.5,000.0,032.0,024.9,7.4,0000.0,0006.77,0003.28,0002.57
2023-11-11 06:29:00,SystemResetWarning,0831.1,5.00,000.00,023.5,022.5,000.0,032.0,024.9,7.5,0000.0,0006.29,0003.23,0002.52
2023-11-11 06:30:00,SystemResetWarning,0831.2,5.00,000.00,023.5,022.5,000.0,032.0,025.0,7.5,0000.0,0006.74,0003.19,0002.50
2023-11-11 06:31:00,SystemResetWarning,0831.2,5.00,000.00,023.5,022.4,000.0,031.9,024.9,7.5,0000.0,0007.04,0003.16,0002.48
2023-11-11 06:32:00,SystemResetWarning,0831.1,5.01,000.00,023.5,022.4,000.0,031.9,024.9,7.5,0000.0,0006.88,0003.12,0002.45
2023-11-11 06:33:00,SystemResetWarning,0831.1,5.00,000.00,023.5,022.4,000.0,031.9,024.9,7.5,0000.0,0006.81,0003.11,0002.44
2023-11-11 06:34:00,SystemResetWarning,0831.1,5.02,000.00,023.5,022.4,000.0,031.9,024.9,7.5,0000.0,0006.79,0003.10,0002.44
2023-11-11 06:35:00,SystemResetWarning,0831.1,5.00,000.00,023.5,022.4,000.0,031.9,024.9,7.5,0000.0,0006.64,0003.05,0002.44
2023-11-11 06:36:00,SystemResetWarning,0831.1,4.99,000.00,023.5,022.4,000.0,031.9,024.9,7.5,0000.0,0006.07,0003.07,0002.44
2023-11-11 06:37:00,SystemResetWarning,0831.2,4.99,000.00,023.5,022.4,000.0,031.9,024.9,7.4,0000.0,0005.52,0003.10,0002.44
2023-11-11 06:38:00,SystemResetWarning,0831.1,4.99,000.00,023.5,022.4,000.0,031.9,024.9,7.7,0000.0,0005.92,0003.13,0002.44
2023-11-11 06:39:00,SystemResetWarning,0831.2,5.02,000.00,023.5,022.4,000.0,031.9,024.9,8.4,0000.0,0006.45,0003.16,0002.44
2023-11-11 06:40:00,SystemResetWarning,0831.2,5.01,000.00,023.5,022.4,000.0,031.9,024.9,8.3,0000.0,0006.64,0003.19,0002.46
2023-11-11 06:41:00,SystemResetWarning,0831.2,4.99,000.00,023.5,022.4,000.0,031.9,024.9,8.0,0000.0,0006.18,0003.21,0002.48
2023-11-11 06:42:00,SystemResetWarning,0831.2,4.99,000.00,023.5,022.4,000.0,031.9,024.9,8.0,0000.0,0005.58,0003.20,0002.49
2023-11-11 06:43:00,SystemResetWarning,0831.2,4.99,000.00,023.5,022.4,000.0,031.9,024.9,8.0,0000.0,0005.77,0003.25,0002.51
2023-11-11 06:44:00,SystemResetWarning,0831.2,5.00,000.00,023.5,022.4,000.0,031.9,024.9,8.1,0000.0,0005.91,0003.28,0002.53
2023-11-11 06:45:00,SystemResetWarning,0831.2,5.00,000.00,023.5,022.4,000.0,031.9,024.9,8.0,0000.0,0005.93,0003.28,0002.52
2023-11-11 06:46:00,SystemResetWarning,0831.2,5.00,000.00,023.5,022.5,000.0,031.9,024.9,7.8,0000.0,0007.40,0003.31,0002.52
2023-11-11 06:47:00,SystemResetWarning,0831.1,5.01,000.00,023.5,022.5,000.0,031.9,024.9,7.7,0000.0,0007.52,0003.31,0002.52
2023-11-11 06:48:00,SystemResetWarning,0831.1,5.01,000.00,023.5,022.5,000.0,031.9,024.9,7.7,0000.0,0007.51,0003.32,0002.53
2023-11-11 06:49:00,SystemResetWarning,0831.2,5.00,000.00,023.5,022.5,000.0,031.9,024.9,7.8,0000.0,0007.35,0003.30,0002.53
2023-11-11 06:50:00,SystemResetWarning,0831.1,4.99,000.00,023.5,022.5,000.0,031.9,025.0,7.7,0000.0,0007.30,0003.30,0002.53
2023-11-11 06:51:00,SystemResetWarning,0831.1,4.99,000.00,023.5,022.5,000.0,031.9,024.9,7.8,0000.0,0007.51,0003.29,0002.52
2023-11-11 06:52:00,SystemResetWarning,0831.2,5.01,000.00,023.5,022.5,000.0,031.9,024.9,7.8,0000.0,0007.65,0003.33,0002.52
2023-11-11 06:53:00,SystemResetWarning,0831.2,5.00,000.00,023.5,022.5,000.0,031.9,024.9,7.8,0000.0,0007.76,0003.38,0002.53
2023-11-11 06:54:00,SystemResetWarning,0831.2,5.01,000.00,023.5,022.5,000.0,031.9,025.0,7.8,0000.0,0007.73,0003.34,0002.51
2023-11-11 06:55:00,SystemResetWarning,0831.2,4.99,000.00,023.5,022.5,000.0,031.9,025.0,7.9,0000.0,0007.65,0003.31,0002.48
2023-11-11 06:56:00,SystemResetWarning,0831.2,5.00,000.00,023.5,022.5,000.0,031.9,025.0,8.0,0000.0,0007.73,0003.30,0002.47
2023-11-11 06:57:00,SystemResetWarning,0831.2,4.99,000.00,023.5,022.5,000.0,031.9,025.0,8.1,0000.0,0006.50,0003.26,0002.47
2023-11-11 06:58:00,SystemResetWarning,0831.2,4.99,000.00,023.5,022.5,000.0,031.9,025.0,8.0,0000.0,0006.32,0003.25,0002.48
2023-11-11 06:59:00,SystemResetWarning,0831.2,5.00,000.00,023.5,022.4,000.0,031.9,024.9,7.8,0000.0,0006.15,0003.22,0002.47
